TimeCET,TemperatureF,Dew PointF,Humidity,Sea Level PressureIn,VisibilityMPH,Wind Direction,Wind SpeedMPH,Gust SpeedMPH,PrecipitationIn,Events,Conditions,WindDirDegrees,DateUTC
12:20 AM,51.8,41.0,67,29.86,-9999.0,North,3.5,-,N/A,,Clear,350,2013-03-01 23:20:00
12:50 AM,50.0,41.0,71,29.86,-9999.0,NNW,3.5,-,N/A,,Clear,330,2013-03-01 23:50:00
1:20 AM,51.8,41.0,67,29.83,-9999.0,NNW,4.6,-,N/A,,Clear,340,2013-03-02 00:20:00
1:50 AM,51.8,39.2,62,29.83,-9999.0,NNE,8.1,-,N/A,,Clear,30,2013-03-02 00:50:00
2:20 AM,51.8,39.2,62,29.80,-9999.0,NE,16.1,-,N/A,,Clear,50,2013-03-02 01:20:00
2:50 AM,53.6,39.2,58,29.77,-9999.0,NE,17.3,-,N/A,,Clear,50,2013-03-02 01:50:00
3:20 AM,51.8,39.2,62,29.77,-9999.0,NE,11.5,-,N/A,,Clear,50,2013-03-02 02:20:00
3:50 AM,51.8,39.2,62,29.77,-9999.0,NNE,8.1,-,N/A,,Clear,20,2013-03-02 02:50:00
4:20 AM,53.6,41.0,62,29.77,6.2,NNE,11.5,-,N/A,,Scattered Clouds,20,2013-03-02 03:20:00
4:50 AM,53.6,41.0,62,29.77,6.2,NE,15.0,-,N/A,Rain,Light Rain,50,2013-03-02 03:50:00
5:20 AM,53.6,42.8,67,29.77,6.2,NE,8.1,-,N/A,Rain,Light Rain,50,2013-03-02 04:20:00
5:50 AM,53.6,41.0,62,29.77,6.2,ENE,9.2,-,N/A,,Mostly Cloudy,60,2013-03-02 04:50:00
6:20 AM,53.6,42.8,67,29.77,6.2,NNE,10.4,-,N/A,,Mostly Cloudy,30,2013-03-02 05:20:00
6:50 AM,51.8,42.8,71,29.77,6.2,NE,12.7,-,N/A,,Scattered Clouds,40,2013-03-02 05:50:00
7:20 AM,51.8,42.8,71,29.77,6.2,NE,13.8,-,N/A,,Scattered Clouds,40,2013-03-02 06:20:00
7:50 AM,53.6,42.8,67,29.77,6.2,ENE,18.4,-,N/A,,Scattered Clouds,60,2013-03-02 06:50:00
8:20 AM,53.6,41.0,62,29.77,6.2,ENE,20.7,-,N/A,,Scattered Clouds,60,2013-03-02 07:20:00
8:50 AM,53.6,41.0,62,29.77,6.2,NE,18.4,-,N/A,,Mostly Cloudy,50,2013-03-02 07:50:00
9:20 AM,53.6,39.2,58,29.80,6.2,ENE,20.7,-,N/A,,Mostly Cloudy,60,2013-03-02 08:20:00
9:50 AM,53.6,41.0,62,29.80,6.2,NE,18.4,-,N/A,,Mostly Cloudy,50,2013-03-02 08:50:00
10:50 AM,53.6,41.0,62,29.80,6.2,NE,17.3,-,N/A,,Mostly Cloudy,50,2013-03-02 09:50:00
11:20 AM,53.6,41.0,62,29.80,6.2,NE,24.2,-,N/A,,Mostly Cloudy,50,2013-03-02 10:20:00
11:50 AM,53.6,42.8,67,29.80,6.2,ENE,16.1,-,N/A,,Mostly Cloudy,60,2013-03-02 10:50:00
12:20 PM,55.4,42.8,63,29.80,6.2,ENE,17.3,-,N/A,,Mostly Cloudy,60,2013-03-02 11:20:00
12:50 PM,55.4,42.8,63,29.80,6.2,NE,19.6,-,N/A,,Mostly Cloudy,50,2013-03-02 11:50:00
1:20 PM,53.6,41.0,62,29.80,6.2,NE,23.0,-,N/A,,Mostly Cloudy,50,2013-03-02 12:20:00
2:20 PM,53.6,42.8,67,29.80,6.2,NE,15.0,-,N/A,,Mostly Cloudy,40,2013-03-02 13:20:00
2:50 PM,53.6,42.8,67,29.80,6.2,NE,18.4,-,N/A,,Light Drizzle,50,2013-03-02 13:50:00
3:20 PM,51.8,42.8,71,29.83,6.2,NE,20.7,32.2,N/A,,Light Drizzle,50,2013-03-02 14:20:00
3:50 PM,53.6,41.0,62,29.83,6.2,NE,18.4,-,N/A,,Light Drizzle,40,2013-03-02 14:50:00
4:20 PM,51.8,42.8,71,29.86,6.2,NE,18.4,-,N/A,,Mostly Cloudy,40,2013-03-02 15:20:00
4:50 PM,51.8,41.0,67,29.86,6.2,NE,20.7,-,N/A,,Mostly Cloudy,50,2013-03-02 15:50:00
5:20 PM,51.8,41.0,67,29.89,6.2,NE,16.1,-,N/A,,Mostly Cloudy,50,2013-03-02 16:20:00
5:50 PM,53.6,39.2,58,29.89,6.2,ENE,12.7,-,N/A,,Mostly Cloudy,60,2013-03-02 16:50:00
6:20 PM,51.8,41.0,67,29.89,6.2,NNE,8.1,-,N/A,,Mostly Cloudy,30,2013-03-02 17:20:00
6:50 PM,51.8,39.2,62,29.89,6.2,NE,15.0,-,N/A,,Mostly Cloudy,50,2013-03-02 17:50:00
7:20 PM,53.6,39.2,58,29.89,6.2,NE,16.1,-,N/A,,Mostly Cloudy,50,2013-03-02 18:20:00
7:50 PM,51.8,39.2,62,29.92,6.2,NE,15.0,-,N/A,,Mostly Cloudy,50,2013-03-02 18:50:00
8:20 PM,51.8,39.2,62,29.92,6.2,NE,11.5,-,N/A,,Mostly Cloudy,50,2013-03-02 19:20:00
8:50 PM,51.8,39.2,62,29.95,6.2,NNE,10.4,-,N/A,,Mostly Cloudy,30,2013-03-02 19:50:00
9:20 PM,51.8,39.2,62,29.95,6.2,North,8.1,-,N/A,,Scattered Clouds,10,2013-03-02 20:20:00
9:50 PM,50.0,39.2,66,29.95,6.2,NNE,10.4,-,N/A,,Partly Cloudy,30,2013-03-02 20:50:00
10:20 PM,50.0,37.4,62,29.95,6.2,NNE,9.2,-,N/A,,Partly Cloudy,30,2013-03-02 21:20:00
10:50 PM,48.2,37.4,66,29.98,6.2,NE,5.8,-,N/A,,Partly Cloudy,50,2013-03-02 21:50:00
11:20 PM,48.2,35.6,62,29.98,6.2,ENE,6.9,-,N/A,,Partly Cloudy,60,2013-03-02 22:20:00
11:50 PM,46.4,35.6,66,29.98,6.2,NNE,5.8,-,N/A,,Partly Cloudy,30,2013-03-02 22:50:00